When you browse on this site, cookies collect data to enhance your experience and personalize the content and advertising you see.
Visit our Privacy Policy to learn more. By continuing to use the site, you agree to this use of cookies and data.
  • In France
  • List of Countries
  • For 7 days
  • Water Temperature
  • Satellite Maps
  • Weather Map
  • Weather Widgets
  • user-avatar
    Login

    Hourly Weather Madingou

    Today, 17 November, Saturday

    Time Temperature Precipitation Wind Pressure Humidity
    00:00 +26°C° 1 mm 1 mps 745 mmHg 95%
    01:00 +26°C° 0 mm 1 mps 745 mmHg 95%
    02:00 +26°C° 0.4 mm 1 mps 745 mmHg 96%
    03:00 +26°C° 0.4 mm 1 mps 745 mmHg 96%
    04:00 +25°C° 0.4 mm 1 mps 745 mmHg 97%
    05:00 +26°C° 1 mm 1 mps 745 mmHg 96%
    06:00 +26°C° 1 mm 1 mps 745 mmHg 95%
    07:00 +26°C° 0 mm 1 mps 746 mmHg 94%
    08:00 +27°C° 1.4 mm 1 mps 746 mmHg 90%
    09:00 +28°C° 1.4 mm 1 mps 746 mmHg 86%
    10:00 +29°C° 1.4 mm 1 mps 745 mmHg 83%
    11:00 +30°C° 1.5 mm 1 mps 745 mmHg 79%
    12:00 +31°C° 1.5 mm 2 mps 744 mmHg 75%
    13:00 +32°C° 1.5 mm 2 mps 744 mmHg 71%
    14:00 +32°C° 0.4 mm 2 mps 743 mmHg 71%
    15:00 +32°C° 0.4 mm 2 mps 743 mmHg 71%
    16:00 +32°C° 0.4 mm 2 mps 743 mmHg 71%
    17:00 +30°C° 1.5 mm 1 mps 743 mmHg 77%
    18:00 +29°C° 1.5 mm 1 mps 744 mmHg 83%
    19:00 +28°C° 1.5 mm 1 mps 744 mmHg 89%
    20:00 +27°C° 2 mm 1 mps 745 mmHg 90%
    21:00 +27°C° 2 mm 1 mps 746 mmHg 92%
    22:00 +27°C° 2 mm 1 mps 746 mmHg 93%
    23:00 +26°C° 0.2 mm 1 mps 746 mmHg 94%

    Tomorrow, 18 November, Sunday

    Time Temperature Precipitation Wind Pressure Humidity
    00:00 +26°C° 0.2 mm 1 mps 746 mmHg 95%
    01:00 +26°C° 0.2 mm 1 mps 745 mmHg 96%
    02:00 +26°C° 0.1 mm 1 mps 745 mmHg 97%
    03:00 +24°C° 0.1 mm 0 mps 745 mmHg 97%
    04:00 +24°C° 0.1 mm 0 mps 744 mmHg 97%
    05:00 +24°C° 0 mm 0 mps 745 mmHg 97%
    06:00 +24°C° 0 mm 0 mps 745 mmHg 96%
    07:00 +24°C° 0 mm 0 mps 745 mmHg 96%
    08:00 +25°C° 0.2 mm 0 mps 745 mmHg 92%
    09:00 +26°C° 0.2 mm 0 mps 745 mmHg 87%
    10:00 +27°C° 0.2 mm 0 mps 746 mmHg 83%
    11:00 +29°C° 0.4 mm 0 mps 745 mmHg 77%
    12:00 +32°C° 0.4 mm 1 mps 744 mmHg 71%
    13:00 +33°C° 0.4 mm 1 mps 743 mmHg 65%
    14:00 +33°C° 0.2 mm 1 mps 743 mmHg 66%
    15:00 +33°C° 0.2 mm 1 mps 742 mmHg 67%
    16:00 +32°C° 0.2 mm 1 mps 742 mmHg 68%
    17:00 +31°C° 0.2 mm 1 mps 742 mmHg 73%
    18:00 +30°C° 0.2 mm 1 mps 743 mmHg 78%
    19:00 +28°C° 0.2 mm 1 mps 743 mmHg 83%
    20:00 +28°C° 0.3 mm 1 mps 744 mmHg 86%
    21:00 +27°C° 0.3 mm 1 mps 744 mmHg 88%
    22:00 +27°C° 0.3 mm 1 mps 745 mmHg 91%
    23:00 +26°C° 0.3 mm 1 mps 745 mmHg 92%

    Day after tomorrow, 19 November, Monday

    Time Temperature Precipitation Wind Pressure Humidity
    00:00 +26°C° 0.3 mm 1 mps 744 mmHg 94%
    01:00 +26°C° 0.3 mm 1 mps 744 mmHg 96%
    02:00 +26°C° 0 mm 1 mps 744 mmHg 96%
    03:00 +26°C° 0 mm 1 mps 744 mmHg 96%
    04:00 +26°C° 0 mm 1 mps 743 mmHg 97%
    05:00 +26°C° 0 mm 1 mps 744 mmHg 95%
    06:00 +26°C° 0 mm 1 mps 744 mmHg 94%
    07:00 +27°C° 0 mm 1 mps 745 mmHg 93%
    08:00 +28°C° 0 mm 1 mps 745 mmHg 88%
    09:00 +29°C° 0 mm 1 mps 745 mmHg 83%
    10:00 +30°C° 0 mm 1 mps 746 mmHg 78%
    11:00 +31°C° 0.4 mm 1 mps 745 mmHg 74%
    12:00 +32°C° 0.4 mm 1 mps 744 mmHg 70%
    13:00 +33°C° 0.4 mm 1 mps 743 mmHg 67%
    14:00 +33°C° 1.8 mm 1 mps 743 mmHg 70%
    15:00 +32°C° 1.8 mm 1 mps 742 mmHg 72%
    16:00 +32°C° 1.8 mm 1 mps 742 mmHg 75%
    17:00 +30°C° 0.6 mm 1 mps 742 mmHg 80%
    18:00 +29°C° 0.6 mm 1 mps 743 mmHg 84%
    19:00 +28°C° 0.6 mm 1 mps 744 mmHg 89%
    20:00 +28°C° 0 mm 1 mps 744 mmHg 91%
    21:00 +27°C° 0 mm 1 mps 744 mmHg 92%
    22:00 +27°C° 0 mm 1 mps 745 mmHg 94%
    23:00 +27°C° 0 mm 1 mps 744 mmHg 95%

    20 November, Tuesday

    Time Temperature Precipitation Wind Pressure Humidity
    00:00 +26°C° 0 mm 1 mps 744 mmHg 95%
    01:00 +26°C° 0 mm 1 mps 744 mmHg 96%
    02:00 +26°C° 0 mm 1 mps 744 mmHg 96%
    03:00 +26°C° 0 mm 1 mps 744 mmHg 96%
    04:00 +26°C° 0 mm 1 mps 743 mmHg 96%
    05:00 +26°C° 0 mm 1 mps 744 mmHg 95%
    06:00 +26°C° 0 mm 1 mps 744 mmHg 94%
    07:00 +27°C° 0 mm 1 mps 745 mmHg 93%
    08:00 +28°C° 0.1 mm 1 mps 745 mmHg 88%
    09:00 +29°C° 0.1 mm 1 mps 746 mmHg 83%
    10:00 +30°C° 0.1 mm 1 mps 746 mmHg 78%
    11:00 +31°C° 0.2 mm 1 mps 745 mmHg 74%
    12:00 +32°C° 0.2 mm 1 mps 745 mmHg 70%
    13:00 +33°C° 0.2 mm 1 mps 744 mmHg 66%
    14:00 +33°C° 0.8 mm 1 mps 743 mmHg 67%
    15:00 +32°C° 0.8 mm 1 mps 743 mmHg 69%
    16:00 +32°C° 0.8 mm 1 mps 742 mmHg 70%
    17:00 +31°C° 0.1 mm 1 mps 743 mmHg 76%
    18:00 +29°C° 0.1 mm 1 mps 743 mmHg 82%
    19:00 +28°C° 0.1 mm 1 mps 744 mmHg 88%
    20:00 +27°C° 0.1 mm 1 mps 744 mmHg 90%
    21:00 +27°C° 0.1 mm 1 mps 745 mmHg 92%
    22:00 +27°C° 0.1 mm 1 mps 745 mmHg 93%
    23:00 +26°C° 0 mm 1 mps 745 mmHg 94%

    21 November, Wednesday

    Time Temperature Precipitation Wind Pressure Humidity
    00:00 +26°C° 0 mm 1 mps 744 mmHg 95%
    01:00 +26°C° 0 mm 1 mps 744 mmHg 96%
    02:00 +26°C° 0 mm 1 mps 744 mmHg 96%
    03:00 +26°C° 0 mm 1 mps 744 mmHg 95%
    04:00 +26°C° 0 mm 1 mps 743 mmHg 95%
    05:00 +26°C° 0 mm 1 mps 744 mmHg 94%
    06:00 +27°C° 0 mm 1 mps 745 mmHg 93%
    07:00 +27°C° 0 mm 1 mps 745 mmHg 92%
    08:00 +28°C° 0 mm 1 mps 746 mmHg 87%
    09:00 +29°C° 0 mm 1 mps 746 mmHg 81%
    10:00 +30°C° 0 mm 1 mps 746 mmHg 76%
    11:00 +31°C° 0.1 mm 1 mps 745 mmHg 74%
    12:00 +31°C° 0.1 mm 1 mps 744 mmHg 71%
    13:00 +32°C° 0.1 mm 1 mps 744 mmHg 69%
    14:00 +32°C° 0.5 mm 1 mps 743 mmHg 69%
    15:00 +32°C° 0.5 mm 1 mps 743 mmHg 70%
    16:00 +32°C° 0.5 mm 1 mps 743 mmHg 71%
    17:00 +30°C° 1.6 mm 1 mps 743 mmHg 77%
    18:00 +29°C° 1.6 mm 1 mps 744 mmHg 84%
    19:00 +26°C° 1.6 mm 0 mps 744 mmHg 90%
    20:00 +25°C° 0.2 mm 0 mps 744 mmHg 90%
    21:00 +25°C° 0.2 mm 0 mps 745 mmHg 91%
    22:00 +25°C° 0.2 mm 0 mps 745 mmHg 92%
    23:00 +27°C° 0 mm 1 mps 744 mmHg 93%

    22 November, Thursday

    Time Temperature Precipitation Wind Pressure Humidity
    00:00 +26°C° 0 mm 1 mps 744 mmHg 94%
    01:00 +26°C° 0 mm 1 mps 744 mmHg 95%
    02:00 +26°C° 0.1 mm 1 mps 744 mmHg 95%
    03:00 +26°C° 0.1 mm 1 mps 744 mmHg 96%
    04:00 +26°C° 0.1 mm 1 mps 743 mmHg 96%
    05:00 +26°C° 0.2 mm 1 mps 744 mmHg 96%
    06:00 +26°C° 0.2 mm 1 mps 745 mmHg 95%
    07:00 +27°C° 0.2 mm 1 mps 745 mmHg 95%
    08:00 +28°C° 0.1 mm 1 mps 745 mmHg 89%
    09:00 +29°C° 0.1 mm 1 mps 746 mmHg 84%
    10:00 +30°C° 0.1 mm 2 mps 746 mmHg 78%
    11:00 +31°C° 0.4 mm 2 mps 745 mmHg 74%
    12:00 +32°C° 0.4 mm 2 mps 744 mmHg 69%
    13:00 +34°C° 0.4 mm 2 mps 743 mmHg 65%
    14:00 +34°C° 1.4 mm 2 mps 743 mmHg 69%
    15:00 +32°C° 1.4 mm 1 mps 742 mmHg 72%
    16:00 +32°C° 1.4 mm 1 mps 742 mmHg 75%
    17:00 +30°C° 1.5 mm 1 mps 743 mmHg 80%
    18:00 +29°C° 1.5 mm 1 mps 743 mmHg 85%
    19:00 +28°C° 1.5 mm 1 mps 744 mmHg 90%
    20:00 +27°C° 0.9 mm 1 mps 744 mmHg 91%
    21:00 +27°C° 0.9 mm 1 mps 744 mmHg 93%
    22:00 +27°C° 0.9 mm 1 mps 745 mmHg 94%
    23:00 +26°C° 0 mm 1 mps 744 mmHg 95%
    Show more